| time (UTC) | temp F | wind direction | speed knots | gust knots | rain 1hr in | rain 24hr in | rain mn in | humidity % | barometer mb |
| 20260502222556 | 75 | 0 | 0.0 | 4.3 | 0.00 | 0.00 | 0.00 | 30 | 1018.4 |
| 20260502222055 | 74 | 0 | 0.0 | 6.1 | 0.00 | 0.00 | 0.00 | 29 | 1018.6 |
| 20260502221605 | 74 | 0 | 2.6 | 6.1 | 0.00 | 0.00 | 0.00 | 29 | 1018.7 |
| 20260502221055 | 74 | 0 | 0.9 | 6.1 | 0.00 | 0.00 | 0.00 | 30 | 1018.7 |
| 20260502220555 | 75 | 65 | 2.6 | 7.8 | 0.00 | 0.00 | 0.00 | 30 | 1018.8 |
| 20260502220057 | 74 | 0 | 1.7 | 7.8 | 0.00 | 0.00 | 0.00 | 31 | 1018.8 |
| 20260502215555 | 74 | 0 | 1.7 | 6.1 | 0.00 | 0.00 | 0.00 | 35 | 1018.9 |
| 20260502215055 | 73 | 0 | 0.0 | 3.5 | 0.00 | 0.00 | 0.00 | 30 | 1019.0 |
| 20260502214555 | 73 | 0 | 0.0 | 3.5 | 0.00 | 0.00 | 0.00 | 30 | 1019.2 |
| 20260502214056 | 73 | 0 | 0.0 | 0.9 | 0.00 | 0.00 | 0.00 | 31 | 1019.3 |
| 20260502213555 | 72 | 0 | 0.0 | 5.2 | 0.00 | 0.00 | 0.00 | 31 | 1019.4 |
| 20260502213105 | 72 | 0 | 0.9 | 5.2 | 0.00 | 0.00 | 0.00 | 32 | 1019.3 |
| 20260502212556 | 73 | 0 | 0.0 | 3.5 | 0.00 | 0.00 | 0.00 | 32 | 1019.3 |
| 20260502212056 | 72 | 0 | 0.0 | 5.2 | 0.00 | 0.00 | 0.00 | 33 | 1019.4 |
| 20260502211557 | 73 | 44 | 1.7 | 5.2 | 0.00 | 0.00 | 0.00 | 34 | 1019.4 |
| 20260502211055 | 73 | 43 | 1.7 | 5.2 | 0.00 | 0.00 | 0.00 | 34 | 1019.5 |
| 20260502210554 | 73 | 0 | 0.0 | 5.2 | 0.00 | 0.00 | 0.00 | 32 | 1019.6 |
| 20260502210057 | 73 | 0 | 0.0 | 5.2 | 0.00 | 0.00 | 0.00 | 33 | 1019.7 |
| 20260502205555 | 73 | 52 | 0.9 | 5.2 | 0.00 | 0.00 | 0.00 | 34 | 1019.6 |
| 20260502205055 | 72 | 0 | 0.0 | 7.0 | 0.00 | 0.00 | 0.00 | 35 | 1019.8 |
| 20260502204602 | 72 | 0 | 0.9 | 7.0 | 0.00 | 0.00 | 0.00 | 35 | 1019.9 |
| 20260502204054 | 72 | 0 | 0.0 | 7.0 | 0.00 | 0.00 | 0.00 | 34 | 1019.9 |
| 20260502203556 | 73 | 110 | 1.7 | 7.8 | 0.00 | 0.00 | 0.00 | 35 | 1019.9 |
| 20260502203103 | 73 | 53 | 1.7 | 7.8 | 0.00 | 0.00 | 0.00 | 32 | 1019.9 |
| 20260502202556 | 73 | 77 | 3.5 | 8.7 | 0.00 | 0.00 | 0.00 | 34 | 1019.9 |
| 20260502202056 | 74 | 16 | 3.5 | 8.7 | 0.00 | 0.00 | 0.00 | 33 | 1020.0 |
| 20260502201556 | 74 | 0 | 2.6 | 8.7 | 0.00 | 0.00 | 0.00 | 35 | 1020.1 |
| 20260502201057 | 73 | 65 | 1.7 | 8.7 | 0.00 | 0.00 | 0.00 | 37 | 1020.1 |
| 20260502200556 | 73 | 83 | 0.9 | 10.4 | 0.00 | 0.00 | 0.00 | 37 | 1020.0 |
| 20260502200133 | 73 | 86 | 4.3 | 11.3 | 0.00 | 0.00 | 0.00 | 37 | 1020.1 |
| 20260502195553 | 73 | 145 | 6.1 | 11.3 | 0.00 | 0.00 | 0.00 | 37 | 1020.2 |
| 20260502195055 | 73 | 117 | 0.9 | 11.3 | 0.00 | 0.00 | 0.00 | 38 | 1020.2 |
| 20260502194607 | 72 | 88 | 7.0 | 11.3 | 0.00 | 0.00 | 0.00 | 39 | 1020.2 |
| 20260502194053 | 71 | 98 | 1.7 | 7.0 | 0.00 | 0.00 | 0.00 | 42 | 1020.3 |
| 20260502193554 | 71 | 157 | 0.0 | 6.1 | 0.00 | 0.00 | 0.00 | 41 | 1020.6 |
| 20260502193057 | 72 | 0 | 1.7 | 7.8 | 0.00 | 0.00 | 0.00 | 42 | 1020.6 |
| 20260502192556 | 72 | 56 | 2.6 | 9.6 | 0.00 | 0.00 | 0.00 | 41 | 1020.6 |
| 20260502192055 | 72 | 83 | 5.2 | 9.6 | 0.00 | 0.00 | 0.00 | 40 | 1020.7 |
| 20260502191605 | 72 | 0 | 1.7 | 10.4 | 0.00 | 0.00 | 0.00 | 39 | 1020.9 |
| 20260502191056 | 71 | 120 | 5.2 | 10.4 | 0.00 | 0.00 | 0.00 | 40 | 1020.9 |
| 20260502190555 | 71 | 93 | 4.3 | 9.6 | 0.00 | 0.00 | 0.00 | 41 | 1021.0 |
| 20260502190054 | 71 | 14 | 4.3 | 9.6 | 0.00 | 0.00 | 0.00 | 42 | 1021.0 |
| 20260502185556 | 71 | 88 | 2.6 | 7.8 | 0.00 | 0.00 | 0.00 | 42 | 1021.1 |
| 20260502185056 | 71 | 51 | 4.3 | 7.8 | 0.00 | 0.00 | 0.00 | 41 | 1021.1 |
| 20260502184554 | 71 | 96 | 4.3 | 10.4 | 0.00 | 0.00 | 0.00 | 40 | 1021.2 |
| 20260502184056 | 71 | 104 | 5.2 | 10.4 | 0.00 | 0.00 | 0.00 | 42 | 1021.4 |
| 20260502183554 | 70 | 0 | 0.0 | 5.2 | 0.00 | 0.00 | 0.00 | 42 | 1021.5 |
| 20260502183059 | 70 | 0 | 0.9 | 5.2 | 0.00 | 0.00 | 0.00 | 42 | 1021.5 |
| 20260502182556 | 69 | 0 | 0.0 | 10.4 | 0.00 | 0.00 | 0.00 | 43 | 1021.6 |
| 20260502182056 | 70 | 131 | 3.5 | 12.2 | 0.00 | 0.00 | 0.00 | 42 | 1021.7 |
| 20260502181555 | 70 | 0 | 5.2 | 12.2 | 0.00 | 0.00 | 0.00 | 43 | 1021.8 |
| 20260502181052 | 71 | 131 | 4.3 | 12.2 | 0.00 | 0.00 | 0.00 | 43 | 1021.8 |
| 20260502180555 | 70 | 86 | 4.3 | 13.0 | 0.00 | 0.00 | 0.00 | 44 | 1021.8 |
| 20260502164054 | 64 | 55 | 2.6 | 7.0 | 0.00 | 0.00 | 0.00 | 54 | 1022.2 |
| 20260502163554 | 63 | 30 | 3.5 | 7.0 | 0.00 | 0.00 | 0.00 | 55 | 1022.1 |
| 20260502163101 | 63 | 4 | 2.6 | 7.0 | 0.00 | 0.00 | 0.00 | 56 | 1022.2 |
| 20260502162556 | 63 | 66 | 2.6 | 7.8 | 0.00 | 0.00 | 0.00 | 55 | 1022.2 |
| 20260502162053 | 63 | 39 | 0.9 | 7.8 | 0.00 | 0.00 | 0.00 | 56 | 1022.2 |
| 20260502161605 | 63 | 53 | 3.5 | 7.8 | 0.00 | 0.00 | 0.00 | 55 | 1022.2 |
| 20260502161053 | 63 | 37 | 4.3 | 7.8 | 0.00 | 0.00 | 0.00 | 58 | 1022.2 |
| 20260502160557 | 62 | 31 | 5.2 | 10.4 | 0.00 | 0.00 | 0.00 | 60 | 1022.2 |
| 20260502160106 | 62 | 72 | 6.1 | 10.4 | 0.00 | 0.00 | 0.00 | 60 | 1022.2 |
| 20260502152055 | 62 | 83 | 5.2 | 11.3 | 0.00 | 0.00 | 0.00 | 57 | 1022.0 |
| 20260502151611 | 63 | 99 | 5.2 | 9.6 | 0.00 | 0.00 | 0.00 | 58 | 1021.8 |
| 20260502151055 | 63 | 98 | 5.2 | 9.6 | 0.00 | 0.00 | 0.00 | 59 | 1021.6 |
| 20260502150555 | 62 | 64 | 6.1 | 9.6 | 0.00 | 0.00 | 0.00 | 60 | 1021.6 |
| 20260502150130 | 62 | 49 | 5.2 | 8.7 | 0.00 | 0.00 | 0.00 | 64 | 1021.6 |
| 20260502130557 | 52 | 0 | 0.0 | 0.0 | 0.00 | 0.01 | 0.00 | 80 | 1020.1 |
| 20260502130105 | 52 | 0 | 0.0 | 0.0 | 0.00 | 0.01 | 0.00 | 80 | 1020.2 |
| 20260502123553 | 53 | 0 | 0.0 | 2.6 | 0.00 | 0.01 | 0.00 | 79 | 1019.9 |
| 20260502123054 | 53 | 0 | 0.0 | 5.2 | 0.00 | 0.01 | 0.00 | 79 | 1019.8 |
| 20260502122553 | 53 | 0 | 0.9 | 6.1 | 0.00 | 0.01 | 0.00 | 78 | 1019.7 |
| 20260502122054 | 53 | 0 | 0.9 | 6.1 | 0.00 | 0.01 | 0.00 | 78 | 1019.7 |
| 20260502121601 | 53 | 1 | 1.7 | 9.6 | 0.00 | 0.01 | 0.00 | 79 | 1019.7 |
| 20260502121056 | 53 | 0 | 0.9 | 9.6 | 0.00 | 0.01 | 0.00 | 79 | 1019.6 |
| 20260502120555 | 53 | 1 | 3.5 | 9.6 | 0.00 | 0.01 | 0.00 | 80 | 1019.6 |
| 20260502120112 | 53 | 0 | 0.9 | 9.6 | 0.00 | 0.01 | 0.00 | 80 | 1019.6 |
| 20260502115558 | 53 | 34 | 2.6 | 9.6 | 0.00 | 0.01 | 0.00 | 81 | 1019.5 |
| 20260502115055 | 53 | 0 | 0.0 | 2.6 | 0.00 | 0.01 | 0.00 | 81 | 1019.6 |
| 20260502114612 | 53 | 0 | 0.0 | 0.0 | 0.00 | 0.01 | 0.00 | 82 | 1019.5 |
| 20260502114055 | 53 | 0 | 0.0 | 0.0 | 0.00 | 0.01 | 0.00 | 83 | 1019.6 |
| 20260502113555 | 52 | 0 | 0.0 | 0.0 | 0.00 | 0.01 | 0.00 | 83 | 1019.5 |
| 20260502113114 | 52 | 0 | 0.0 | 0.0 | 0.00 | 0.01 | 0.00 | 83 | 1019.4 |
| 20260502112554 | 53 | 0 | 0.0 | 0.0 | 0.00 | 0.01 | 0.00 | 83 | 1019.4 |
| 20260502112054 | 53 | 0 | 0.0 | 2.6 | 0.00 | 0.01 | 0.00 | 82 | 1019.3 |
| 20260502111604 | 53 | 0 | 0.0 | 3.5 | 0.00 | 0.01 | 0.00 | 82 | 1019.3 |
| 20260502111058 | 53 | 0 | 0.0 | 3.5 | 0.00 | 0.01 | 0.00 | 82 | 1019.4 |
| 20260502110556 | 53 | 0 | 0.0 | 6.1 | 0.00 | 0.01 | 0.00 | 81 | 1019.3 |
| 20260502110104 | 54 | 0 | 0.9 | 6.1 | 0.00 | 0.01 | 0.00 | 81 | 1019.2 |
| 20260502105556 | 54 | 310 | 1.7 | 6.1 | 0.00 | 0.01 | 0.00 | 81 | 1019.2 |
| 20260502105055 | 54 | 301 | 1.7 | 6.1 | 0.00 | 0.01 | 0.00 | 81 | 1019.1 |
| 20260502104556 | 54 | 296 | 2.6 | 6.1 | 0.00 | 0.01 | 0.00 | 80 | 1019.1 |
| 20260502104057 | 54 | 299 | 0.9 | 6.1 | 0.00 | 0.01 | 0.00 | 80 | 1019.1 |
| 20260502103555 | 55 | 315 | 0.0 | 6.1 | 0.00 | 0.01 | 0.00 | 79 | 1019.1 |
| 20260502103112 | 55 | 304 | 2.6 | 6.1 | 0.00 | 0.01 | 0.00 | 79 | 1019.1 |
| 20260502102557 | 55 | 311 | 0.9 | 7.0 | 0.00 | 0.01 | 0.00 | 79 | 1019.1 |
| 20260502102055 | 55 | 309 | 2.6 | 7.0 | 0.00 | 0.01 | 0.00 | 79 | 1018.9 |
| 20260502101606 | 55 | 309 | 3.5 | 7.8 | 0.00 | 0.01 | 0.00 | 79 | 1018.9 |
| 20260502101055 | 55 | 316 | 4.3 | 7.8 | 0.00 | 0.01 | 0.00 | 79 | 1018.8 |
| 20260502100552 | 55 | 299 | 3.5 | 7.0 | 0.00 | 0.01 | 0.00 | 78 | 1018.8 |
| 20260502091054 | 55 | 310 | 3.5 | 7.0 | 0.00 | 0.01 | 0.00 | 75 | 1018.4 |
| 20260502090553 | 55 | 327 | 3.5 | 7.8 | 0.00 | 0.01 | 0.00 | 75 | 1018.3 |
| 20260502090108 | 55 | 330 | 3.5 | 7.8 | 0.00 | 0.01 | 0.00 | 75 | 1018.3 |
| 20260502071055 | 55 | 0 | 0.0 | 2.6 | 0.00 | 0.01 | 0.00 | 66 | 1018.2 |
| 20260502070555 | 55 | 0 | 0.0 | 2.6 | 0.00 | 0.01 | 0.00 | 65 | 1018.2 |
| 20260502065555 | 56 | 0 | 0.0 | 0.0 | 0.00 | 0.01 | 0.01 | 62 | 1018.2 |
| 20260502065055 | 57 | 0 | 0.0 | 0.0 | 0.00 | 0.01 | 0.01 | 61 | 1018.0 |
| 20260502064555 | 57 | 0 | 0.0 | 0.0 | 0.00 | 0.01 | 0.01 | 60 | 1018.1 |
| 20260502064055 | 58 | 0 | 0.0 | 0.0 | 0.00 | 0.01 | 0.01 | 58 | 1018.0 |
| 20260502063555 | 57 | 0 | 0.0 | 0.0 | 0.00 | 0.01 | 0.01 | 58 | 1018.0 |
| 20260502063121 | 57 | 0 | 0.0 | 0.0 | 0.00 | 0.01 | 0.01 | 61 | 1018.0 |
| 20260502062553 | 58 | 0 | 0.0 | 0.0 | 0.00 | 0.01 | 0.01 | 62 | 1018.0 |
| 20260502062053 | 58 | 0 | 0.0 | 0.0 | 0.00 | 0.01 | 0.01 | 59 | 1018.0 |
| 20260502061555 | 58 | 0 | 0.0 | 0.0 | 0.00 | 0.01 | 0.01 | 58 | 1017.9 |
| 20260502061054 | 59 | 0 | 0.0 | 0.0 | 0.00 | 0.01 | 0.01 | 58 | 1018.0 |
| 20260502060553 | 59 | 0 | 0.0 | 0.0 | 0.00 | 0.01 | 0.01 | 56 | 1017.8 |
| 20260502060106 | 60 | 0 | 0.0 | 0.0 | 0.00 | 0.01 | 0.01 | 56 | 1017.7 |
| 20260502055556 | 60 | 0 | 0.0 | 0.0 | 0.00 | 0.13 | 0.01 | 54 | 1017.7 |
| 20260502055056 | 59 | 0 | 0.0 | 0.0 | 0.00 | 0.13 | 0.01 | 51 | 1017.7 |
| 20260502054615 | 59 | 0 | 0.0 | 0.0 | 0.00 | 0.13 | 0.01 | 55 | 1017.6 |
| 20260502054053 | 60 | 0 | 0.0 | 0.0 | 0.00 | 0.13 | 0.01 | 53 | 1017.6 |
| 20260502053555 | 61 | 0 | 0.0 | 3.5 | 0.00 | 0.13 | 0.01 | 49 | 1017.6 |
| 20260502053101 | 62 | 0 | 0.0 | 3.5 | 0.00 | 0.13 | 0.01 | 46 | 1017.5 |
| 20260502052553 | 63 | 0 | 0.0 | 0.0 | 0.00 | 0.13 | 0.01 | 42 | 1017.4 |
| 20260502052053 | 63 | 0 | 0.0 | 0.0 | 0.00 | 0.13 | 0.01 | 39 | 1017.3 |
| 20260502051554 | 63 | 0 | 0.0 | 0.0 | 0.00 | 0.13 | 0.01 | 39 | 1017.3 |
| 20260502051055 | 62 | 0 | 0.0 | 0.0 | 0.00 | 0.13 | 0.01 | 41 | 1017.3 |
| 20260502050555 | 63 | 0 | 0.0 | 3.5 | 0.00 | 0.13 | 0.01 | 41 | 1017.2 |
| 20260502050054 | 63 | 0 | 0.9 | 3.5 | 0.00 | 0.13 | 0.01 | 40 | 1017.2 |
| 20260502045559 | 64 | 0 | 0.0 | 0.0 | 0.00 | 0.30 | 0.01 | 39 | 1017.1 |
| 20260502045052 | 64 | 0 | 0.0 | 0.9 | 0.00 | 0.30 | 0.01 | 37 | 1017.1 |
| 20260502044558 | 64 | 0 | 0.0 | 0.9 | 0.00 | 0.30 | 0.01 | 37 | 1017.1 |
| 20260502044057 | 64 | 0 | 0.0 | 0.0 | 0.00 | 0.30 | 0.01 | 39 | 1017.0 |
| 20260502043554 | 64 | 0 | 0.0 | 3.5 | 0.00 | 0.30 | 0.01 | 37 | 1017.0 |
| 20260502043107 | 65 | 0 | 0.0 | 3.5 | 0.00 | 0.30 | 0.01 | 37 | 1017.0 |
| 20260502042557 | 65 | 0 | 0.0 | 3.5 | 0.00 | 0.30 | 0.01 | 36 | 1017.0 |
| 20260502042056 | 65 | 0 | 0.0 | 2.6 | 0.00 | 0.30 | 0.01 | 34 | 1017.1 |
| 20260502041556 | 65 | 0 | 0.0 | 0.0 | 0.00 | 0.30 | 0.01 | 37 | 1017.1 |
| 20260502041055 | 65 | 0 | 0.0 | 0.0 | 0.00 | 0.30 | 0.01 | 35 | 1017.0 |
| 20260502040554 | 66 | 0 | 0.0 | 4.3 | 0.00 | 0.30 | 0.01 | 34 | 1016.8 |
| 20260502040055 | 66 | 0 | 0.0 | 4.3 | 0.00 | 0.30 | 0.01 | 33 | 1016.8 |
| 20260502035554 | 67 | 0 | 0.0 | 0.0 | 0.00 | 0.46 | 0.01 | 32 | 1016.8 |
| 20260502035055 | 68 | 0 | 0.0 | 0.0 | 0.00 | 0.46 | 0.01 | 31 | 1016.6 |
| 20260502034557 | 68 | 0 | 0.0 | 5.2 | 0.00 | 0.46 | 0.01 | 29 | 1016.6 |
| 20260502034054 | 67 | 0 | 0.0 | 7.0 | 0.00 | 0.46 | 0.01 | 29 | 1016.4 |
| 20260502033554 | 67 | 328 | 2.6 | 7.0 | 0.00 | 0.46 | 0.01 | 30 | 1016.4 |
| 20260502033052 | 66 | 0 | 0.0 | 0.0 | 0.00 | 0.46 | 0.01 | 34 | 1016.3 |
| 20260502032553 | 66 | 0 | 0.0 | 0.9 | 0.00 | 0.46 | 0.01 | 35 | 1016.3 |
| 20260502032055 | 66 | 0 | 0.0 | 0.9 | 0.00 | 0.46 | 0.01 | 36 | 1016.3 |
| 20260502031555 | 66 | 0 | 0.0 | 0.9 | 0.00 | 0.46 | 0.01 | 36 | 1016.2 |
| 20260502031054 | 66 | 0 | 0.0 | 0.0 | 0.00 | 0.46 | 0.01 | 36 | 1016.1 |
| 20260502030551 | 66 | 0 | 0.0 | 0.0 | 0.00 | 0.46 | 0.01 | 37 | 1016.2 |
| 20260502030106 | 67 | 0 | 0.0 | 0.0 | 0.00 | 0.46 | 0.01 | 34 | 1016.0 |
| 20260502025552 | 67 | 0 | 0.0 | 0.0 | 0.00 | 0.50 | 0.01 | 34 | 1016.0 |
| 20260502025057 | 67 | 0 | 0.0 | 0.9 | 0.00 | 0.50 | 0.01 | 33 | 1015.9 |
| 20260502024554 | 67 | 0 | 0.0 | 0.9 | 0.00 | 0.50 | 0.01 | 33 | 1015.9 |
| 20260502024055 | 67 | 0 | 0.0 | 0.9 | 0.00 | 0.50 | 0.01 | 34 | 1015.9 |
| 20260502023556 | 66 | 0 | 0.0 | 0.9 | 0.00 | 0.50 | 0.01 | 35 | 1015.8 |
| 20260502023057 | 66 | 0 | 0.0 | 0.9 | 0.00 | 0.50 | 0.01 | 36 | 1015.8 |
| 20260502022554 | 66 | 0 | 0.0 | 0.0 | 0.00 | 0.50 | 0.01 | 37 | 1015.8 |
| 20260502022054 | 67 | 0 | 0.0 | 0.0 | 0.00 | 0.50 | 0.01 | 37 | 1015.7 |
| 20260502021555 | 67 | 0 | 0.0 | 0.0 | 0.00 | 0.50 | 0.01 | 35 | 1015.6 |
| 20260502021056 | 68 | 0 | 0.0 | 0.0 | 0.00 | 0.50 | 0.01 | 35 | 1015.5 |
| 20260502020557 | 68 | 0 | 0.0 | 0.0 | 0.00 | 0.50 | 0.01 | 33 | 1015.5 |
| 20260502020054 | 69 | 0 | 0.0 | 2.6 | 0.00 | 0.50 | 0.01 | 33 | 1015.4 |
| 20260502015553 | 70 | 0 | 0.0 | 3.5 | 0.00 | 0.54 | 0.01 | 32 | 1015.4 |
| 20260502015055 | 70 | 0 | 0.0 | 6.1 | 0.00 | 0.54 | 0.01 | 30 | 1015.3 |
| 20260502014555 | 71 | 0 | 0.0 | 6.1 | 0.00 | 0.54 | 0.01 | 30 | 1015.3 |
| 20260502014052 | 72 | 0 | 0.0 | 5.2 | 0.00 | 0.54 | 0.01 | 30 | 1015.3 |
| 20260502013555 | 72 | 0 | 0.0 | 5.2 | 0.00 | 0.54 | 0.01 | 30 | 1015.2 |
| 20260502013057 | 73 | 0 | 0.9 | 7.0 | 0.00 | 0.54 | 0.01 | 28 | 1015.2 |
| 20260502012556 | 73 | 0 | 0.0 | 7.0 | 0.00 | 0.54 | 0.01 | 29 | 1015.2 |
| 20260502012055 | 74 | 302 | 0.9 | 6.1 | 0.00 | 0.54 | 0.01 | 27 | 1015.1 |
| 20260502011556 | 74 | 0 | 0.0 | 6.1 | 0.00 | 0.54 | 0.01 | 27 | 1015.0 |
| 20260502011054 | 74 | 0 | 1.7 | 6.1 | 0.00 | 0.54 | 0.01 | 27 | 1014.9 |
| 20260502010556 | 75 | 281 | 0.0 | 3.5 | 0.00 | 0.54 | 0.01 | 26 | 1015.0 |
| 20260502010126 | 75 | 0 | 0.0 | 6.1 | 0.00 | 0.54 | 0.01 | 26 | 1014.9 |
| 20260502005554 | 75 | 0 | 0.9 | 7.0 | 0.00 | 0.58 | 0.01 | 26 | 1014.9 |
| 20260502005057 | 75 | 268 | 0.0 | 7.0 | 0.00 | 0.58 | 0.01 | 28 | 1014.9 |
| 20260502004556 | 75 | 0 | 0.9 | 7.0 | 0.00 | 0.58 | 0.01 | 26 | 1014.9 |
| 20260502004054 | 76 | 283 | 0.0 | 7.0 | 0.00 | 0.58 | 0.01 | 26 | 1014.8 |
| 20260502003555 | 76 | 0 | 0.9 | 7.8 | 0.00 | 0.58 | 0.01 | 25 | 1014.7 |
| 20260502003059 | 76 | 0 | 2.6 | 7.8 | 0.00 | 0.58 | 0.01 | 27 | 1014.8 |
| 20260502002555 | 76 | 0 | 4.3 | 7.8 | 0.00 | 0.58 | 0.01 | 25 | 1014.8 |
| 20260502002055 | 76 | 0 | 0.0 | 2.6 | 0.00 | 0.58 | 0.01 | 27 | 1014.8 |
| 20260502001553 | 75 | 0 | 0.0 | 4.3 | 0.00 | 0.58 | 0.01 | 29 | 1014.7 |
| 20260502001052 | 75 | 0 | 0.9 | 4.3 | 0.00 | 0.58 | 0.01 | 26 | 1014.8 |
| 20260502000554 | 75 | 0 | 0.0 | 3.5 | 0.00 | 0.58 | 0.01 | 27 | 1014.6 |
| 20260502000057 | 76 | 0 | 0.0 | 3.5 | 0.00 | 0.58 | 0.01 | 26 | 1014.7 |
| 20260501235554 | 76 | 0 | 0.0 | 3.5 | 0.00 | 0.73 | 0.01 | 24 | 1014.8 |
| 20260501235055 | 76 | 0 | 0.0 | 5.2 | 0.00 | 0.73 | 0.01 | 24 | 1014.8 |
| 20260501234555 | 76 | 0 | 0.0 | 5.2 | 0.00 | 0.73 | 0.01 | 28 | 1014.7 |
| 20260501234053 | 76 | 0 | 2.6 | 5.2 | 0.00 | 0.73 | 0.01 | 23 | 1014.6 |
| 20260501233552 | 77 | 0 | 0.0 | 1.7 | 0.00 | 0.73 | 0.01 | 26 | 1014.7 |
| 20260501233058 | 77 | 0 | 0.0 | 3.5 | 0.00 | 0.73 | 0.01 | 28 | 1014.6 |
| 20260501232554 | 77 | 0 | 0.0 | 3.5 | 0.00 | 0.73 | 0.01 | 28 | 1014.7 |
| 20260501232052 | 77 | 0 | 0.0 | 3.5 | 0.00 | 0.73 | 0.01 | 31 | 1014.6 |
| 20260501231558 | 77 | 258 | 0.0 | 3.5 | 0.00 | 0.73 | 0.01 | 27 | 1014.7 |
| 20260501231052 | 76 | 283 | 0.0 | 4.3 | 0.00 | 0.73 | 0.01 | 32 | 1014.6 |
| 20260501230555 | 75 | 0 | 0.0 | 4.3 | 0.00 | 0.73 | 0.01 | 33 | 1014.7 |
| 20260501230059 | 75 | 359 | 0.0 | 7.0 | 0.00 | 0.73 | 0.01 | 29 | 1014.7 |
| 20260501225555 | 75 | 0 | 0.0 | 7.0 | 0.00 | 0.73 | 0.01 | 33 | 1014.7 |
| 20260501225053 | 74 | 0 | 3.5 | 7.0 | 0.00 | 0.73 | 0.01 | 31 | 1014.7 |
| 20260501224554 | 75 | 5 | 0.9 | 7.0 | 0.00 | 0.73 | 0.01 | 31 | 1014.7 |
| 20260501224053 | 76 | 0 | 0.0 | 4.3 | 0.00 | 0.73 | 0.01 | 33 | 1014.7 |
| 20260501223553 | 77 | 0 | 0.0 | 7.0 | 0.00 | 0.73 | 0.01 | 34 | 1014.7 |
| 20260501223107 | 76 | 0 | 0.0 | 7.0 | 0.00 | 0.73 | 0.01 | 32 | 1014.7 |